Flag for U.S.A. Weather past 2 weeks in Rochester, New York, U.S.A.

Now
62 °F

Partly sunny.


Feels Like: 62 °F
Forecast: 55 / 72 °F
Wind: 5 mph from Southwest

Location: Greater Rochester International Airport

Current Time: Aug 29, 2014 at 10:20:43 AM

Latest Report: Aug 29, 2014 at 9:54 AM


Visibility: 10 mi

Pressure: 30.23 "Hg

Humidity: 75%

Dew point: 54 °F

Location of RochesterLocation

Historic Weather in Rochester — Graph

°F

Rochester temperature yesterday

Maximum temperature yesterday: 70 °F (at 3:54 PM)
Minimum temperature yesterday: 54 °F (at 4:54 AM)
Average temperature yesterday: 62 °F

Past Weeks' High & Low Weather Summary

 TemperatureHumidityPressure
High87 °F (Aug 26, 4:54 PM)97% (Aug 21, 3:54 AM)30.22 "Hg (Aug 21, 3:54 AM)
Low51 °F (Aug 29, 3:54 AM)39% (Aug 15, 1:54 PM)29.83 "Hg (Aug 16, 6:54 PM)
Average67 °F75%30.00 "Hg
* Reported Aug 14 8:54 AM — Aug 29 8:54 AM, Rochester, Weather by CustomWeather, © 2014

Note: Actual official high and low records may vary slightly from our data, if they occured in-between our weather recording intervals... More about our weather records

Advertising

Rochester weather history for previous 24 hours

 ConditionsComfort  
Time TempWeatherWind HumidityBarometerVisibility
8:54 AM
Aug 29
58 °FBroken clouds.No wind81%30.22 "Hg10 mi
7:54 AM54 °FBroken clouds.6 mph90%30.22 "Hg10 mi
6:54 AM51 °FPartly cloudy.3 mph92%30.20 "Hg10 mi
5:54 AM51 °FPassing clouds.3 mph92%30.18 "Hg10 mi
4:54 AM51 °FMostly cloudy.No wind92%30.17 "Hg10 mi
3:54 AM51 °FPassing clouds.5 mph92%30.16 "Hg10 mi
2:54 AM52 °FPassing clouds.3 mph93%30.16 "Hg10 mi
1:54 AM53 °FPassing clouds.5 mph89%30.16 "Hg10 mi
12:54 AM54 °FClear.5 mph90%30.16 "Hg10 mi
11:54 PM
Aug 28
55 °FPartly cloudy.5 mph87%30.14 "Hg10 mi
10:54 PM56 °FPassing clouds.5 mph84%30.14 "Hg10 mi
9:54 PM58 °FClear.5 mph81%30.14 "Hg10 mi
8:54 PM59 °FPassing clouds.3 mph75%30.11 "Hg10 mi
7:54 PM65 °FPassing clouds.3 mph56%30.09 "Hg10 mi
6:54 PM68 °FPassing clouds.7 mph49%30.09 "Hg10 mi
5:54 PM69 °FScattered clouds.10 mph45%30.09 "Hg10 mi
4:54 PM70 °FPartly sunny.9 mph47%30.08 "Hg10 mi
3:54 PM70 °FPassing clouds.10 mph46%30.07 "Hg10 mi
2:54 PM69 °FPassing clouds.16 mph47%30.07 "Hg10 mi
1:54 PM68 °FPassing clouds.14 mph47%30.07 "Hg10 mi
12:54 PM67 °FScattered clouds.15 mph47%30.08 "Hg10 mi
11:54 AM67 °FScattered clouds.17 mph44%30.08 "Hg10 mi
10:54 AM66 °FScattered clouds.10 mph52%30.08 "Hg10 mi
Weather by CustomWeather, © 2014

See weather overviewHow to use our weather pages